GW5810 Weather Reports


time (UTC)temp
C
wind
direction
speed
KPH
gust
KPH
rain 1hr
cm
rain 24hr
cm
rain mn
cm
humidity
%
barometer
mb
20260507122734 14 199 8.0 20.9 0.00 0.41 0.00 62 1014.5
20260507122233 14 160 6.4 17.7 0.00 0.41 0.00 64 1013.9
20260507121734 14 109 4.8 17.7 0.00 0.43 0.00 65 1014.2
20260507121234 14 164 3.2 16.1 0.00 0.46 0.00 59 1014.5
20260507120734 13 209 6.4 16.1 0.00 0.48 0.00 62 1014.4
20260507120555 13 37 8.0 17.7 0.00 0.48 0.00 62 1014.7
20260507115734 13 194 6.4 17.7 0.00 0.48 0.00 64 1015.2
20260507115234 13 164 6.4 17.7 0.00 0.48 0.00 65 1015.6
20260507114734 13 288 4.8 17.7 0.00 0.53 0.00 64 1015.5
20260507114232 13 94 4.8 17.7 0.00 0.56 0.00 65 1014.2
20260507113846 13 163 3.2 14.5 0.00 0.58 0.00 64 1014.3
20260507112734 13 328 3.2 12.9 0.00 0.76 0.00 68 1014.9
20260507112235 13 79 4.8 16.1 0.00 0.76 0.00 67 1015.5
20260507111735 13 49 6.4 16.1 0.00 0.76 0.00 66 1015.4
20260507111232 14 203 6.4 16.1 0.00 0.76 0.00 63 1013.9
20260507110734 13 197 4.8 16.1 0.00 0.79 0.00 67 1013.8
20260507110234 13 181 3.2 11.3 0.00 0.79 0.00 66 1014.9
20260507105734 12 186 3.2 11.3 0.00 0.79 0.00 69 1015.2
20260507105236 12 82 3.2 11.3 0.00 0.79 0.00 70 1015.5
20260507105059 12 177 3.2 14.5 0.00 0.79 0.00 70 1015.5
20260507104547 13 125 6.4 17.7 0.00 0.81 0.00 70 1015.9
20260507103731 13 53 6.4 17.7 0.00 0.81 0.00 68 1014.4
20260507103231 13 131 3.2 14.5 0.00 0.84 0.00 69 1014.2
20260507103044 13 245 3.2 14.5 0.00 0.86 0.00 69 1014.1
20260507102231 12 250 3.2 14.5 0.00 0.86 0.00 71 1014.5
20260507101731 12 266 4.8 14.5 0.00 0.86 0.00 70 1014.7
20260507101230 12 152 4.8 14.5 0.00 0.86 0.00 72 1016.6
20260507100730 12 124 4.8 14.5 0.00 0.86 0.00 72 1014.7
20260507100230 12 91 4.8 19.3 0.00 0.86 0.00 71 1014.4
20260507095731 12 71 4.8 19.3 0.00 0.86 0.00 70 1014.5
20260507095228 12 160 3.2 12.9 0.00 0.86 0.00 70 1014.3
20260507094726 12 141 3.2 14.5 0.00 0.86 0.00 72 1015.2
20260507094226 12 170 4.8 14.5 0.00 0.86 0.00 68 1015.9
20260507093722 12 213 4.8 14.5 0.00 0.86 0.00 71 1013.8
20260507093222 12 51 3.2 9.7 0.00 0.86 0.00 69 1014.5
20260507092723 11 170 1.6 9.7 0.00 0.86 0.00 73 1014.3
20260507092222 11 165 1.6 8.0 0.00 0.86 0.00 74 1016.4
20260507091722 11 99 1.6 8.0 0.00 0.86 0.00 75 1016.6
20260507091222 12 71 3.2 9.7 0.00 0.86 0.00 74 1016.0
20260507090724 12 182 4.8 12.9 0.00 0.86 0.00 74 1015.1
20260507090319 12 163 4.8 14.5 0.00 0.86 0.00 75 1014.6
20260507085223 12 88 3.2 14.5 0.00 0.89 0.00 73 1014.4
20260507084722 12 59 3.2 9.7 0.00 0.91 0.00 73 1014.4
20260507084221 11 118 3.2 9.7 0.00 0.91 0.00 73 1014.5
20260507083721 11 164 3.2 12.9 0.00 0.91 0.00 74 1015.5
20260507083220 11 57 3.2 12.9 0.00 0.94 0.00 77 1014.7
20260507082721 11 191 3.2 11.3 0.00 0.94 0.00 76 1014.8
20260507082217 11 164 3.2 12.9 0.00 0.94 0.00 77 1014.7
20260507081716 11 156 4.8 12.9 0.00 0.94 0.00 79 1014.9
20260507081217 11 151 4.8 12.9 0.00 0.97 0.00 78 1014.9
20260507080717 11 150 4.8 12.9 0.00 0.97 0.00 80 1015.0
20260507080217 11 94 3.2 11.3 0.00 0.97 0.00 80 1015.2
20260507075718 10 190 3.2 12.9 0.00 0.97 0.00 82 1014.9
20260507075215 10 147 3.2 12.9 0.00 0.97 0.00 80 1014.9
20260507074715 10 59 4.8 12.9 0.00 0.97 0.00 82 1014.9
20260507074212 10 199 3.2 12.9 0.00 0.97 0.00 82 1015.0
20260507073712 10 0 3.2 12.9 0.00 0.97 0.00 84 1015.0
20260507073210 10 184 4.8 12.9 0.00 0.97 0.00 86 1015.3
20260507072710 10 156 4.8 11.3 0.00 0.97 0.00 87 1014.9
20260507072209 10 254 3.2 11.3 0.00 0.97 0.00 88 1014.9
20260507071706 10 198 3.2 9.7 0.00 0.97 0.00 89 1014.8
20260507071526 9 196 3.2 9.7 0.00 0.97 0.00 91 1014.9
20260507070706 9 161 3.2 11.3 0.00 0.97 0.00 93 1015.0
20260507070206 8 153 3.2 11.3 0.00 0.97 0.00 95 1015.1
20260507065709 8 161 3.2 9.7 0.00 0.97 0.00 96 1015.1
20260507065209 8 182 1.6 9.7 0.00 0.97 0.00 98 1015.0
20260507064706 8 182 1.6 6.4 0.00 0.97 0.00 99 1015.2
20260507064207 7 0 1.6 4.8 0.00 0.97 0.00 99 1015.0
20260507063707 7 66 1.6 4.8 0.00 0.97 0.00 100 1015.3
20260507063526 7 0 0.0 4.8 0.00 0.97 0.00 100 1015.4
20260507062710 7 131 0.0 4.8 0.00 0.97 0.00 100 1015.6
20260507062206 7 147 0.0 4.8 0.00 0.97 0.00 100 1015.7
20260507061706 7 0 0.0 3.2 0.00 0.97 0.00 99 1015.9
20260507061207 7 147 0.0 3.2 0.00 0.97 0.00 99 1016.0
20260507060706 7 0 0.0 1.6 0.00 0.97 0.00 99 1016.1
20260507060206 7 0 0.0 1.6 0.00 0.97 0.00 99 1016.3
20260507055704 6 0 0.0 1.6 0.00 0.97 0.00 99 1016.2
20260507055204 6 0 0.0 4.8 0.00 0.97 0.00 99 1016.0
20260507054702 6 0 0.0 4.8 0.00 0.97 0.00 99 1015.9
20260507054204 6 123 0.0 4.8 0.00 0.97 0.00 99 1015.9
20260507053704 6 0 0.0 4.8 0.00 0.97 0.00 99 1015.8
20260507053202 6 126 0.0 4.8 0.00 0.97 0.00 99 1015.7
20260507052759 6 0 0.0 3.2 0.00 0.97 0.00 99 1015.7
20260507051704 6 79 0.0 3.2 0.00 0.97 0.00 99 1015.6
20260507051519 6 0 0.0 3.2 0.00 0.97 0.00 99 1015.6
20260507050703 6 0 0.0 3.2 0.00 0.97 0.00 99 1015.6
20260507050535 6 71 0.0 3.2 0.00 0.97 0.00 99 1015.6
20260507045701 6 0 0.0 3.2 0.00 0.97 0.00 100 1015.6
20260507045202 6 0 0.0 3.2 0.00 0.97 0.00 100 1015.6
20260507044702 6 0 0.0 3.2 0.00 0.97 0.00 100 1015.6
20260507044202 6 0 0.0 1.6 0.00 0.97 0.00 100 1015.6
20260507043702 6 0 0.0 1.6 0.00 0.97 0.00 100 1015.6
20260507043201 6 0 0.0 1.6 0.00 0.97 0.00 100 1015.6
20260507042701 6 0 0.0 1.6 0.00 0.97 0.00 100 1015.6
20260507042201 6 0 0.0 4.8 0.00 0.97 0.00 100 1015.6
20260507041703 6 0 0.0 4.8 0.00 0.97 0.00 100 1015.5
20260507041200 6 68 0.0 4.8 0.00 0.97 0.00 100 1015.5
20260507040701 6 57 1.6 3.2 0.00 0.97 0.00 100 1015.5
20260507040201 6 48 0.0 3.2 0.00 0.97 0.00 100 1015.4
20260507035701 6 0 0.0 1.6 0.00 0.97 0.00 99 1015.7
20260507035201 6 0 0.0 1.6 0.00 0.97 0.00 99 1015.8
20260507034703 6 0 0.0 1.6 0.00 0.97 0.00 99 1015.9
20260507034201 6 0 0.0 1.6 0.00 0.97 0.00 99 1015.8
20260507033701 6 0 0.0 0.0 0.00 0.97 0.00 99 1015.8
20260507033201 6 0 0.0 0.0 0.00 0.97 0.00 99 1015.9
20260507033015 6 0 0.0 1.6 0.00 0.97 0.00 99 1015.9
20260507032203 6 0 0.0 1.6 0.00 0.97 0.00 99 1015.6
20260507031702 6 0 0.0 0.0 0.00 0.97 0.00 99 1015.7
20260507031157 7 0 0.0 4.8 0.00 0.97 0.00 99 1015.7
20260507030657 7 0 0.0 4.8 0.00 0.97 0.00 99 1015.6
20260507030159 7 0 0.0 3.2 0.00 0.97 0.00 99 1015.6
20260507025701 7 157 0.0 3.2 0.00 0.97 0.00 99 1015.5
20260507025159 7 0 0.0 3.2 0.00 0.97 0.00 99 1015.6
20260507024700 7 172 0.0 3.2 0.00 0.97 0.00 99 1015.6
20260507024201 7 0 0.0 3.2 0.00 0.97 0.00 99 1015.4
20260507023701 7 0 0.0 1.6 0.00 0.97 0.00 99 1015.3
20260507023533 7 0 0.0 1.6 0.00 0.97 0.00 99 1015.2
20260507022701 7 0 0.0 3.2 0.00 0.97 0.00 99 1015.2
20260507022200 7 0 0.0 3.2 0.00 0.97 0.00 99 1015.1
20260507021659 7 0 0.0 3.2 0.00 0.97 0.00 99 1015.2
20260507021158 7 0 0.0 0.0 0.00 0.97 0.00 99 1015.2
20260507020656 7 0 0.0 1.6 0.00 0.97 0.00 99 1015.1
20260507020156 7 0 0.0 1.6 0.00 0.97 0.00 99 1015.1
20260507015657 7 0 0.0 1.6 0.00 0.97 0.00 99 1015.1
20260507015157 7 0 0.0 1.6 0.00 0.97 0.00 99 1015.1
20260507014657 7 0 0.0 4.8 0.00 0.97 0.00 99 1015.1
20260507014156 7 0 0.0 4.8 0.00 0.97 0.00 99 1015.1
20260507013656 7 0 0.0 4.8 0.00 0.97 0.00 99 1015.1
20260507013158 7 0 0.0 4.8 0.00 0.97 0.00 99 1015.0
20260507012658 7 0 0.0 4.8 0.00 0.97 0.00 99 1015.0
20260507012155 7 327 0.0 4.8 0.00 0.97 0.00 99 1015.0
20260507012008 7 331 0.0 4.8 0.00 0.97 0.00 99 1015.1
20260507011616 7 0 0.0 4.8 0.00 0.97 0.00 99 1015.1
20260507011007 7 0 0.0 4.8 0.00 0.97 0.00 99 1015.1
20260507010151 7 12 0.0 4.8 0.00 0.97 0.00 99 1015.1
20260507010003 7 0 0.0 4.8 0.00 0.97 0.00 99 1015.1
20260507005151 7 0 0.0 4.8 0.00 0.97 0.00 99 1015.1
20260507004651 7 0 0.0 4.8 0.00 0.97 0.00 99 1015.1
20260507004150 7 319 0.0 4.8 0.00 0.97 0.00 99 1015.1
20260507003649 7 351 0.0 4.8 0.00 0.97 0.00 99 1015.1
20260507003150 7 337 0.0 4.8 0.00 0.97 0.00 99 1015.1
20260507002649 7 0 0.0 4.8 0.00 0.97 0.00 99 1015.1
20260507002244 7 0 1.6 4.8 0.00 0.97 0.00 99 1015.0
20260507001144 7 0 0.0 4.8 0.00 0.97 0.00 99 1015.1
20260507001032 7 324 0.0 4.8 0.00 0.97 0.00 99 1015.2
20260507000141 7 5 0.0 3.2 0.00 0.97 0.00 99 1015.2
20260506235641 7 0 0.0 4.8 0.00 0.97 0.00 99 1015.2
20260506235141 7 0 0.0 4.8 0.00 0.97 0.00 99 1015.2
20260506234950 7 0 0.0 4.8 0.00 0.97 0.00 99 1015.2
20260506234142 7 0 0.0 4.8 0.00 0.97 0.00 99 1015.2
20260506233951 7 0 0.0 4.8 0.00 0.97 0.00 99 1015.2
20260506233137 7 324 0.0 4.8 0.00 0.97 0.00 99 1015.1
20260506232639 7 123 0.0 4.8 0.00 0.97 0.00 99 1015.1
20260506232138 7 0 0.0 4.8 0.00 0.97 0.00 99 1015.2
20260506231638 7 0 0.0 4.8 0.00 0.97 0.00 99 1015.1
20260506231455 7 0 0.0 4.8 0.00 0.97 0.00 98 1015.1
20260506230637 7 343 0.0 6.4 0.00 0.97 0.00 98 1015.0
20260506230132 7 0 0.0 6.4 0.00 0.97 0.00 98 1015.0
20260506225632 7 1 0.0 4.8 0.00 0.97 0.97 98 1015.0
20260506225133 7 33 0.0 4.8 0.00 0.97 0.97 98 1015.0
20260506224633 7 0 0.0 3.2 0.00 0.97 0.97 98 1015.0
20260506224132 7 0 0.0 3.2 0.00 0.97 0.97 98 1015.0
20260506223631 7 52 0.0 3.2 0.00 0.97 0.97 98 1015.0
20260506223131 7 0 0.0 3.2 0.00 0.97 0.97 98 1015.0
20260506222631 7 0 0.0 3.2 0.00 0.97 0.97 98 1015.0
20260506222130 7 0 0.0 3.2 0.00 0.97 0.97 98 1015.1
20260506221940 7 53 0.0 3.2 0.00 0.97 0.97 98 1015.1
20260506221131 7 0 0.0 1.6 0.00 0.97 0.97 98 1015.1
20260506220631 7 0 0.0 1.6 0.00 0.97 0.97 98 1015.1
20260506220131 7 0 0.0 4.8 0.00 0.97 0.97 98 1015.1
20260506215631 8 0 0.0 4.8 0.00 0.97 0.97 98 1015.1
20260506215228 8 197 0.0 4.8 0.00 0.97 0.97 98 1015.0
20260506214132 8 264 0.0 8.0 0.05 0.97 0.97 99 1014.9
20260506213631 8 0 0.0 8.0 0.05 0.97 0.97 99 1014.9
20260506213133 8 0 1.6 6.4 0.08 0.97 0.97 99 1014.8
20260506212632 8 0 1.6 8.0 0.10 0.97 0.97 99 1014.8
20260506212130 8 116 1.6 8.0 0.10 0.97 0.97 99 1014.7
20260506211632 8 146 1.6 6.4 0.10 0.97 0.97 99 1014.7
20260506211133 8 0 1.6 6.4 0.10 0.97 0.97 99 1014.6
20260506210634 8 82 0.0 4.8 0.10 0.97 0.97 99 1014.6
20260506210135 8 0 0.0 4.8 0.10 0.97 0.97 99 1014.6
20260506205949 8 4 1.6 4.8 0.08 0.97 0.97 99 1014.5
20260506205134 8 0 1.6 4.8 0.10 0.97 0.94 99 1014.5
20260506204633 8 0 1.6 6.4 0.08 0.94 0.94 99 1014.5
20260506204135 8 24 1.6 6.4 0.05 0.91 0.91 98 1014.5
20260506203946 8 27 1.6 6.4 0.05 0.91 0.91 98 1014.5
20260506203130 8 57 3.2 8.0 0.05 0.89 0.89 98 1014.5
20260506202626 8 61 1.6 8.0 0.05 0.89 0.89 98 1014.4
20260506202125 8 57 1.6 9.7 0.05 0.89 0.89 98 1014.4
20260506201628 8 35 1.6 9.7 0.08 0.89 0.89 98 1014.4
20260506201127 8 0 1.6 8.0 0.08 0.89 0.89 98 1014.4
20260506200627 8 0 1.6 8.0 0.08 0.89 0.89 98 1014.4
20260506200124 8 293 1.6 8.0 0.08 0.89 0.89 98 1014.4
20260506195624 8 43 1.6 9.7 0.08 0.89 0.89 98 1014.3
20260506195123 8 59 1.6 11.3 0.05 0.86 0.86 98 1014.3
20260506194940 8 247 1.6 11.3 0.05 0.86 0.86 98 1014.3
20260506194125 8 44 3.2 9.7 0.05 0.86 0.86 98 1014.2
20260506193624 8 355 1.6 9.7 0.05 0.86 0.86 98 1014.1
20260506193124 8 0 1.6 9.7 0.05 0.84 0.84 98 1014.1
20260506192621 8 68 1.6 9.7 0.03 0.84 0.84 98 1014.1
20260506192118 8 72 1.6 6.4 0.00 0.81 0.81 98 1014.0
20260506191620 8 133 1.6 6.4 0.00 0.81 0.81 98 1014.0
20260506191119 8 112 0.0 6.4 0.00 0.81 0.81 98 1013.9
20260506190620 8 0 1.6 6.4 0.00 0.81 0.81 97 1013.9
20260506190210 8 0 1.6 6.4 0.00 0.81 0.81 97 1013.9
20260506185116 8 0 3.2 12.9 0.05 0.81 0.81 97 1013.7
20260506184615 8 309 3.2 12.9 0.05 0.81 0.81 97 1013.7
20260506184116 8 311 1.6 9.7 0.08 0.81 0.81 97 1013.6
20260506183617 8 0 0.0 6.4 0.10 0.81 0.81 97 1013.6
20260506183116 8 0 0.0 6.4 0.10 0.81 0.81 97 1013.5
20260506182616 8 319 0.0 4.8 0.10 0.81 0.81 97 1013.5
20260506182116 8 0 0.0 4.8 0.15 0.81 0.81 97 1013.5
20260506181616 8 0 0.0 6.4 0.18 0.81 0.81 97 1013.5
20260506181114 8 4 0.0 6.4 0.18 0.79 0.79 97 1013.5
20260506180613 8 0 1.6 8.0 0.18 0.79 0.79 97 1013.4
20260506180115 8 24 1.6 8.0 0.18 0.79 0.79 96 1013.4
20260506175612 8 44 1.6 9.7 0.15 0.79 0.79 96 1013.3
20260506175436 9 109 1.6 9.7 0.15 0.76 0.76 96 1013.2
20260506174610 9 0 1.6 8.0 0.13 0.76 0.74 96 1013.2
20260506174108 9 311 1.6 9.7 0.10 0.74 0.71 95 1013.2
20260506173609 9 92 1.6 9.7 0.10 0.71 0.71 95 1013.2
20260506173447 9 81 1.6 9.7 0.10 0.71 0.71 95 1013.2
20260506172609 9 340 3.2 9.7 0.08 0.71 0.71 94 1013.3
20260506172109 9 33 3.2 16.1 0.05 0.66 0.64 94 1013.3
20260506171920 10 69 6.4 19.3 0.00 0.61 0.61 94 1013.2
20260506171216 10 341 9.7 20.9 0.00 0.61 0.61 94 1012.8
20260506170118 10 322 8.0 20.9 0.00 0.61 0.61 94 1012.6
20260506165604 10 298 9.7 19.3 0.00 0.61 0.61 94 1012.5
20260506165103 10 334 9.7 19.3 0.00 0.61 0.61 94 1012.5
20260506164916 10 332 8.0 19.3 0.05 0.61 0.61 94 1012.6
20260506164104 10 329 8.0 17.7 0.05 0.61 0.61 94 1012.6
20260506164055 10 337 8.0 17.7 0.05 0.61 0.61 94 1012.8
20260506162937 10 340 6.4 17.7 0.05 0.61 0.61 94 1012.8
20260506162438 10 325 4.8 17.7 0.05 0.61 0.61 93 1012.9
20260506161601 10 359 4.8 17.7 0.05 0.61 0.61 93 1012.9
20260506161107 10 36 6.4 16.1 0.05 0.61 0.61 93 1012.9
20260506160602 10 321 4.8 16.1 0.05 0.61 0.61 92 1013.1
20260506160110 10 9 3.2 12.9 0.05 0.61 0.61 92 1013.2
20260506155602 10 353 3.2 12.9 0.05 0.61 0.61 91 1013.3
20260506155058 10 342 3.2 9.7 0.05 0.61 0.61 89 1013.3
20260506154556 10 0 3.2 11.3 0.00 0.56 0.56 88 1013.3
20260506154057 11 71 3.2 12.9 0.00 0.56 0.56 87 1013.3
20260506153558 11 86 3.2 17.7 0.00 0.56 0.56 86 1013.2
20260506153057 11 329 4.8 17.7 0.00 0.56 0.56 86 1013.2
20260506152557 11 345 3.2 16.1 0.00 0.56 0.56 84 1013.1
20260506152417 11 342 3.2 16.1 0.00 0.56 0.56 82 1012.6
20260506151556 11 73 4.8 16.1 0.00 0.56 0.56 82 1012.5
20260506151414 11 343 4.8 16.1 0.00 0.56 0.56 83 1012.5
20260506150556 11 2 4.8 16.1 0.00 0.56 0.56 83 1012.5
20260506150059 11 291 6.4 17.7 0.00 0.56 0.56 82 1012.5
20260506145556 11 319 8.0 19.3 0.00 0.56 0.56 82 1012.6
20260506145056 11 323 8.0 19.3 0.00 0.56 0.56 82 1012.6
20260506144556 11 328 8.0 19.3 0.00 0.56 0.56 82 1012.7
20260506144056 11 331 6.4 19.3 0.00 0.56 0.56 81 1012.6
20260506143557 11 103 4.8 17.7 0.00 0.56 0.56 81 1012.8
20260506143057 11 99 6.4 20.9 0.00 0.56 0.56 80 1012.5
20260506142557 11 331 6.4 20.9 0.00 0.56 0.56 79 1012.3
20260506142056 11 330 8.0 19.3 0.00 0.56 0.56 79 1012.1
20260506141557 11 319 8.0 19.3 0.00 0.56 0.56 79 1012.2
20260506141052 11 335 6.4 19.3 0.00 0.56 0.56 79 1011.9
20260506140607 11 327 8.0 20.9 0.00 0.56 0.56 79 1012.2
20260506140054 11 341 8.0 22.5 0.00 0.56 0.56 79 1012.3
20260506135553 11 336 6.4 22.5 0.00 0.56 0.56 78 1012.2
20260506135054 11 76 8.0 20.9 0.00 0.56 0.56 79 1012.2
20260506134556 11 340 8.0 20.9 0.00 0.56 0.56 78 1012.1
20260506134055 11 341 8.0 22.5 0.00 0.56 0.56 78 1012.0
20260506133602 11 348 9.7 22.5 0.00 0.56 0.56 78 1012.1
20260506133053 11 340 6.4 20.9 0.00 0.56 0.56 78 1012.1
20260506132555 11 323 6.4 16.1 0.00 0.56 0.56 78 1012.2
20260506132050 11 319 8.0 17.7 0.00 0.56 0.56 78 1012.4
20260506131551 11 56 9.7 22.5 0.00 0.56 0.56 78 1012.4
20260506131048 11 351 9.7 22.5 0.05 0.56 0.56 78 1012.5
20260506130550 11 306 6.4 19.3 0.05 0.56 0.56 78 1012.3
20260506130046 11 331 8.0 20.9 0.05 0.56 0.56 79 1012.4
20260506125529 10 337 9.7 20.9 0.05 0.56 0.56 79 1012.6
20260506125030 10 324 11.3 20.9 0.08 0.56 0.56 79 1012.7
20260506124841 10 309 11.3 20.9 0.13 0.56 0.56 79 1012.7
20260506124030 10 321 9.7 19.3 0.15 0.56 0.56 78 1012.5
20260506123542 10 333 9.7 22.5 0.18 0.56 0.56 78 1012.8
20260506123342 10 331 9.7 22.5 0.23 0.56 0.56 77 1012.9
20260506122841 10 337 9.7 22.5 0.36 0.56 0.56 77 1012.9